Weather in Lebedyn

Ukraine / Sumi District     50°34′35″N   34°29′11″E
temp.,
°C
wind,
m/s
gust,
m/s
humid.,
%
clouds,
%
prec.,
mm/h
press.,
hPa
HPBL,
m
8 march, mon
mon823:000wsw8158395 0.0 1009822
02:00−1wsw7139297 0.1 1008650
05:00−1wsw71293100 0.3 1008658
08:00−1w81288100 0.5 1008864
11:00+1wnw697299 0.3 10091199
14:000wnw696791 0.4 10101299
17:00−2wnw587473 0.1 1010664
20:00−3w378336 0.1 1012284
9 march, tue
tue923:00−4w36850 0.0 1012265
02:00−4nw368649 0.1 1013262
05:00−6nw598773 0.0 1014500
08:00−7nw588252 0.0 1017454
11:00−5nnw577387 0.0 1018746
14:00−5nnw577094 0.1 1020900
17:00−6nnw577497 0.0 1021825
20:00−7nnw477578 0.0 1023674
10 march, wed
wed1023:00−8nnw35800 0.0 1025326
02:00−9nnw34820 0.0 1026229
05:00−9nnw228433 0.0 1026141
08:00−8nnw117563 0.0 1027208
11:00−5nnw1159100 0.0 1026487
14:00−4wnw114994 0.0 1026695
17:00−4nnw115336 0.0 1024467
20:00−5nne226620 0.0 1025106
11 march, thu
thu1123:00−5nne12700 0.0 102657
02:00−6nne22720 0.0 102652
05:00−6ne227351 0.0 102657
08:00−5ene226763 0.0 1027222
11:00−3se224856 0.0 1027812
14:00−1s223828 0.0 10271220
17:00−1sse12460 0.0 102646
20:00−3sse47510 0.0 1026228
12 march, fri
fri1223:00−3sse5105229 0.0 1026411
02:00−3sse7135362 0.0 1024586
05:00−3sse81356100 0.0 1022639
08:00−2s111658100 0.0 10211133
11:00−2s131979100 0.2 10181167
14:00−1s121891100 2.7 10161249
17:00−1s111794100 3.1 10131099
20:000s91597100 6.5 1012606